Regional Weather Roundup
Issued by NWS

Home | Current Version | Previous Version | Text Only | Print | Product List | Glossary Off
Versions: 1 2 3 4 5 6 7 8 9 10 11 12 13 14 15 16 17 18 19 20 21 22 23 24 25 26 27 28 29 30 31 32 33 34 35 36 37 38 39 40 41 42 43 44 45 46 47 48 49 50

000
ASUS43 KLOT 022021
RWRIL

ILLINOIS REGIONAL WEATHER ROUNDUP
NATIONAL WEATHER SERVICE CHICAGO/ROMEOVILLE IL
300 PM CDT WED SEP 02 2015

NOTE: "FAIR" INDICATES FEW OR NO CLOUDS BELOW 12,000 FEET WITH NO
SIGNIFICANT WEATHER AND/OR OBSTRUCTIONS TO VISIBILITY.

* THESE STATIONS ARE NOT UNDER NWS QUALITY CONTROL. THEY ALSO MAY NOT
  REPORT WEATHER SUCH AS PRECIPITATION OR FOG.

ILZ001-002-007-009-015-016-024-022100-
NORTHWEST ILLINOIS

CITY           SKY/WX    TMP DP  RH WIND       PRES   REMARKS
MOLINE         CLOUDY    85  68  56 SW8       29.98F HX  88
STERLING*      PTSUNNY  N/A N/A N/A W9        29.96F
SAVANNA*       CLOUDY    86  69  55 S9        29.99F HX  90
$$

ILZ003-004-008-010-011-017-018-022100-
NORTH CENTRAL ILLINOIS

CITY           SKY/WX    TMP DP  RH WIND       PRES   REMARKS
ROCKFORD       CLOUDY    88  68  51 SW13      30.00F HX  91
FREEPORT*      CLOUDY    82  69  65 W7        30.01F HX  85
ROCHELLE*      PTSUNNY   84  71  63 SW7       30.01S HX  89
DE KALB*       PTSUNNY   87  71  59 SW10      30.01F HX  92
PERU*          MOSUNNY   88  66  48 SW9       30.01F HX  90
$$

ILZ005-006-012>014-019>023-022100-
NORTHEAST ILLINOIS

CITY           SKY/WX    TMP DP  RH WIND       PRES   REMARKS
CHICAGO-OHARE  PTSUNNY   88  67  49 SW13G21   29.99F HX  91
CHICAGO-MIDWAY PTSUNNY   91  68  46 W12       29.99F HX  95
AURORA         MOSUNNY   88  70  55 SW9       30.01F HX  93
LANSING*       PTSUNNY   90  68  49 SW13      30.00F HX  93
JOLIET*        MOSUNNY   90  70  51 W8        30.00F HX  95
WAUKEGAN       MOSUNNY   87  69  54 SW8       29.99F HX  91
DUPAGE AIRPORT MOSUNNY   87  69  54 SW10      30.00F HX  91
KANKAKEE*      MOSUNNY   90  70  52 SW9       30.02F HX  95
WHEELING       MOSUNNY   90  67  46 SW10      30.00F HX  93
MORRIS*        MOSUNNY   87  70  56 SW8       30.00F HX  91
ROMEOVILLE*    PTSUNNY   88  68  51 SW10G17   30.01S HX  91
NORTHERLY ISL    N/A     89  63  41 S8          N/A  HX  90
$$

LMZ740>746-022100-
SOUTHERN LAKE MICHIGAN

STATION/POSITION SKY/WX   TEMP    WIND        PRES    VSBY  WAVE
                          AIR SEA DIR/SP/G                  HT/PER
                          (F)     (DEG/KT/KT) (MB)    (MI)  (FT/S)
SOUTHERN BUOY              74 72  180/  6/  8 1015.4F         1
WILMETTE HARBOR            74 63  290/  6/  8   N/A           1
HARRISON CRIB              87     230/ 10/ 15   N/A
BURNHAM HARBOR             89     190/  5/ 13   N/A
CALUMET HARBOR             88     200/ 10/ 14   N/A
BURNS HARBOR               87     220/ 11/ 14 1016.6F
MICHIGAN CITY              85        CALM       N/A
MICHIGAN CITY 6N           83 77   50/  4/  4   N/A           0
ST. JOSEPH                 79 74   CALM  /  2   N/A           1
$$

ILZ025>027-034>036-040-047-049-050-058-095>099-022100-
WEST-CENTRAL ILLINOIS

CITY           SKY/WX    TMP DP  RH WIND       PRES   REMARKS
QUINCY         CLOUDY    89  66  46 SW12      29.99F HX  91
GALESBURG*     PTSUNNY   87  69  54 S6        29.99F HX  91
MACOMB*        PTSUNNY   88  67  49 SW8       30.01F HX  91
JACKSONVILLE*  PTSUNNY   91  64  41 SW12      30.00F HX  92
PITTSFIELD*    PTSUNNY   89  67  47 S8        30.01F HX  92
$$

ILZ028>032-037-038-041>044-048-051>054-059>061-022100-
CENTRAL ILLINOIS

CITY           SKY/WX    TMP DP  RH WIND       PRES   REMARKS
PONTIAC        MOSUNNY   90  71  53 S9G16     30.02F HX  96
BLOOMINGTON    MOSUNNY   91  67  45 SW10      30.03F HX  94
DECATUR        MOSUNNY   91  65  41 SW12G18   30.02F HX  93
PEORIA         PTSUNNY   90  64  42 SW9       30.00F HX  91
LACON*         PTSUNNY   88  67  49 SW9       29.99F HX  90
LINCOLN*       PTSUNNY   92  64  39 S8        29.99F HX  94
SPRINGFIELD    PTSUNNY   91  68  46 S12G17    30.01F HX  95
TAYLORVILLE    PTSUNNY   88  68  51 S8        30.02F HX  91
$$

ILZ033-039-045-046-055>057-062-063-022100-
EAST-CENTRAL ILLINOIS

CITY           SKY/WX    TMP DP  RH WIND       PRES   REMARKS
CHAMPAIGN      MOSUNNY   91  67  44 SW10      30.03F HX  94
MATTOON        MOSUNNY   90  66  45 S9        30.04F HX  92
PARIS*         SUNNY     90  69  51 SW5       30.05F HX  94
$$

ILZ079-100>102-022100-
SOUTHWEST ILLINOIS

CITY           SKY/WX    TMP DP  RH WIND       PRES   REMARKS
ALTON          MOSUNNY   88  66  48 SW7       30.02F HX  90
BELLEVILLE     MOSUNNY   91  69  48 VRB3      30.01F HX  95
CAHOKIA*       MOSUNNY   91  66  43 S7        30.02F HX  93
SPARTA*        MOSUNNY   89  70  54 S6        30.04F HX  94
$$

ILZ064>066-069>071-074>076-080>082-084>086-088>090-092>094-022100-
SOUTH-CENTRAL ILLINOIS

CITY           SKY/WX    TMP DP  RH WIND       PRES   REMARKS
CARBONDALE     SUNNY     88  68  51 CALM      30.05F HX  91
CAIRO*         SUNNY     89  71  55 CALM      30.05F HX  94
EFFINGHAM*     MOSUNNY   90  63  40 S8        30.05F HX  91
MARION         MOSUNNY   90  70  51 SW7       30.06F HX  95
MT. VERNON     SUNNY     91  70  49 SE6       30.05F HX  97
CENTRALIA*     MOSUNNY   91  70  50 SW5       30.04F HX  96
SALEM*         MOSUNNY   91  67  44 SE6       30.03F HX  94
METROPOLIS*    PTSUNNY   91  73  54 NW3       30.06F HX  99
$$

ILZ067-068-072-073-078-083-087-091-022100-
SOUTHEAST ILLINOIS

CITY           SKY/WX    TMP DP  RH WIND       PRES   REMARKS
LAWRENCEVILLE  SUNNY     92  67  43 SW6       30.05F HX  95
FLORA*         MOSUNNY   90  65  43 SW6       30.04F HX  91
FAIRFIELD*     MOSUNNY   88  70  54 W3        30.04F HX  93
HARRISBURG*    CLOUDY    91  68  46 SW7       30.05F HX  95
ROBINSON*      MOSUNNY   89  69  50 S3        30.05F HX  93
CARMI*         SUNNY     89  69  50 CALM      30.04F HX  93
$$

ABBREVIATIONS USED IN REMARKS
   TC - TEMPERATURE IN CELSIUS
  WCI - WIND CHILL INDEX
   HX - HEAT INDEX
  VSB - VISIBILITY
$$



USA.gov is the U.S. government's official web portal to all federal, state and local government web resources and services.